Weather History for Alexandria Esle, LA

Change the Weather History Date:

Monday, November 12, 2012

  Actual Average Record
Temperature  
Mean Temperature 52 °F -  
Max Temperature 64 °F 69 °F 84 °F (2003)
Min Temperature 39 °F 44 °F 27 °F (1968)
Degree Days  
Heating Degree Days 14    
Growing Degree Days 2 (Base 50)    
Moisture  
Dew Point 47 °F    
Average Humidity 76    
Maximum Humidity 94    
Minimum Humidity 40    
Precipitation  
Precipitation 0.13 in - - ()
Sea Level Pressure  
Sea Level Pressure 30.30 in    
Wind  
Wind Speed 7 mph (North)    
Max Wind Speed 13 mph    
Max Gust Speed 22 mph    
Visibility 10 miles    
Events Rain    
Averages and records for this station are not official NWS values.
T = Trace of Precipitation, MM = Missing Value Source: NWS Daily Summary

Daily Weather History Graph

Daily Weather History Graph

Search for Another Location

Airport:

Trip Planner

Search our weather history database for the weather conditions in past years. The results will help you decide how hot, cold, wet, or windy it might be!

Date:

Astronomy

Nov. 12, 2012 Rise Set
Actual Time 6:34 AM CST 5:11 PM CST
Civil Twilight 6:08 AM CST 5:37 PM CST
Nautical Twilight 5:39 AM CST 6:06 PM CST
Astronomical Twilight 5:11 AM CST 6:35 PM CST
Moon 5:03 AM CST (11/12) 4:15 PM CST (11/12)
Length of Visible Light 11h 28m
Length of Day
10h 37m
Waning Crescent, 2% of the Moon is Illuminated
Nov 12
Waning Crescent
Nov 13
New
Nov 20
First Quarter
Nov 28
Full
Dec 6
Last Quarter

Hourly Weather History & Observations

Time (CST) Temp. Dew Point Humidity Pressure Visibility Wind Dir Wind Speed Gust Speed Precip Events Conditions
12:02 AM 64.4 °F 62.6 °F 94% 30.11 in 6.0 mi NNW 12.7 mph 21.9 mph N/A Rain Light Rain
12:14 AM 62.6 °F 59.0 °F 88% 30.12 in 10.0 mi NNW 10.4 mph 18.4 mph 0.02 in Rain Light Rain
12:17 AM 62.6 °F 59.0 °F 88% 30.13 in 7.0 mi Variable 6.9 mph 16.1 mph 0.03 in Rain Light Rain
12:22 AM 60.8 °F 57.2 °F 88% 30.13 in 2.5 mi NW 6.9 mph 19.6 mph 0.10 in Rain Heavy Rain
12:35 AM 60.8 °F 57.2 °F 88% 30.14 in 6.0 mi Variable 6.9 mph - N/A Rain Light Rain
12:41 AM 60.8 °F 55.4 °F 82% 30.14 in 10.0 mi NW 9.2 mph - 0.11 in Rain Light Rain
12:53 AM 57.9 °F 54.0 °F 87% 30.14 in 10.0 mi North 9.2 mph - 0.11 in Rain Light Rain
1:07 AM 57.2 °F 53.6 °F 88% 30.16 in 10.0 mi NNW 5.8 mph - 0.00 in Rain Light Rain
1:53 AM 57.0 °F 53.1 °F 87% 30.18 in 10.0 mi Variable 6.9 mph - 0.00 in   Overcast
2:53 AM 55.9 °F 50.0 °F 80% 30.20 in 10.0 mi NNW 9.2 mph - N/A   Overcast
3:53 AM 53.1 °F 48.9 °F 86% 30.21 in 10.0 mi Variable 4.6 mph - 0.02 in Rain Light Rain
4:53 AM 53.1 °F 48.9 °F 86% 30.22 in 10.0 mi Calm Calm - 0.00 in   Overcast
5:53 AM 53.1 °F 48.9 °F 86% 30.26 in 10.0 mi Calm Calm - N/A   Overcast
6:25 AM 53.6 °F 50.0 °F 88% 30.28 in 10.0 mi Calm Calm - N/A   Overcast
6:48 AM 53.6 °F 50.0 °F 88% 30.30 in 10.0 mi Calm Calm - N/A   Overcast
6:53 AM 53.1 °F 50.0 °F 89% 30.30 in 10.0 mi Calm Calm - N/A   Overcast
7:16 AM 53.6 °F 50.0 °F 88% 30.31 in 10.0 mi Calm Calm - 0.00 in Rain Light Rain
7:29 AM 53.6 °F 50.0 °F 88% 30.31 in 10.0 mi Calm Calm - 0.00 in   Overcast
7:53 AM 55.0 °F 50.0 °F 83% 30.32 in 10.0 mi Calm Calm - 0.00 in   Overcast
8:31 AM 55.4 °F 50.0 °F 82% 30.34 in 10.0 mi NNW 5.8 mph - N/A   Overcast
8:50 AM 55.4 °F 51.8 °F 88% 30.35 in 10.0 mi North 9.2 mph - N/A   Overcast
8:53 AM 55.9 °F 51.1 °F 84% 30.35 in 10.0 mi Variable 5.8 mph - N/A   Overcast
9:20 AM 57.2 °F 50.0 °F 77% 30.36 in 10.0 mi North 6.9 mph 17.3 mph N/A   Mostly Cloudy
9:53 AM 55.9 °F 48.9 °F 77% 30.37 in 10.0 mi NNW 11.5 mph 20.7 mph N/A   Overcast
10:53 AM 55.9 °F 46.0 °F 69% 30.38 in 10.0 mi NNW 9.2 mph 16.1 mph N/A   Mostly Cloudy
11:04 AM 57.2 °F 44.6 °F 63% 30.38 in 10.0 mi North 5.8 mph 21.9 mph N/A   Scattered Clouds
11:53 AM 60.1 °F 43.0 °F 53% 30.36 in 10.0 mi North 8.1 mph 16.1 mph N/A   Partly Cloudy
12:53 PM 60.1 °F 39.9 °F 47% 30.34 in 10.0 mi NNE 11.5 mph 17.3 mph N/A   Clear
1:53 PM 61.0 °F 39.0 °F 44% 30.35 in 10.0 mi NNE 8.1 mph - N/A   Clear
2:53 PM 61.0 °F 37.0 °F 41% 30.36 in 10.0 mi NE 10.4 mph 18.4 mph N/A   Clear
3:53 PM 60.1 °F 36.0 °F 41% 30.38 in 10.0 mi Variable 4.6 mph - N/A   Clear
4:53 PM 55.9 °F 32.0 °F 40% 30.39 in 10.0 mi Variable 5.8 mph - N/A   Clear
5:53 PM 52.0 °F 30.0 °F 43% 30.41 in 10.0 mi NE 3.5 mph - N/A   Clear
6:53 PM 46.0 °F 36.0 °F 68% 30.42 in 10.0 mi Calm Calm - N/A   Clear
7:53 PM 46.9 °F 33.1 °F 59% 30.43 in 10.0 mi Calm Calm - N/A   Clear
8:53 PM 45.0 °F 34.0 °F 65% 30.45 in 10.0 mi Calm Calm - N/A   Clear
9:53 PM 39.0 °F 36.0 °F 89% 30.46 in 10.0 mi Calm Calm - N/A   Clear
10:53 PM 39.0 °F 35.1 °F 86% 30.46 in 10.0 mi Calm Calm - N/A   Clear
11:53 PM 39.9 °F 33.1 °F 77% 30.45 in 10.0 mi Calm Calm - N/A   Clear